Language: 


Des rapports , des résumés tant et plus, au choix de chacun....


Données statistiques de la station
Quotidien Rapport Aout 8, 2017 Unités:  Anglais    Métrique   les deux
« Précédent Jour
Suivant Jour »
Quotidien Hebdomadaire Mensuel Annuel Actuel
  Haut: Bas: Moyen:
Température: 75.4 °F 54.7 °F 61.5 °F
Pt de rosée: 66.2 °F 53.6 °F 57.4 °F
Humidité: 97 % 57 % 86 %
Vitesse du vent: 12.3 mph 0 mph 1.6 mph
Rafales: 14.3 mph - -
Vent:- - SSW
Pression: 29.9 in 29.8 in -
Précipitation: 0.11 in    
Historical Graphs
 
 
Données statistiques pour Aout 8, 2017
Heure Température Point de rosée Pression Vent Vitesse du vent Refales Humidité Pluie (taux horaire)
00:01 58.8 °F 53.6 °F 29.9 in NNE 3.1 mph 4.7 mph 80 % 0 in
00:06 58.8 °F 53.6 °F 29.9 in NNE 4 mph 4.9 mph 80 % 0 in
00:11 58.6 °F 53.6 °F 29.9 in NE 3.4 mph 4.9 mph 80 % 0 in
00:16 58.6 °F 53.6 °F 29.9 in Calm   4 mph 80 % 0 in
00:21 58.5 °F 53.6 °F 29.9 in Calm   4.3 mph 81 % 0 in
00:26 58.5 °F 53.6 °F 29.9 in Calm   4.3 mph 81 % 0 in
00:31 58.5 °F 53.6 °F 29.9 in Calm   4.3 mph 81 % 0 in
00:37 58.5 °F 53.6 °F 29.9 in Calm   4 mph 81 % 0 in
00:42 58.5 °F 53.6 °F 29.9 in NE 3.4 mph 5.4 mph 81 % 0 in
00:47 58.5 °F 53.6 °F 29.9 in Calm   4.9 mph 82 % 0 in
00:52 58.5 °F 53.6 °F 29.9 in NE 2 mph 5.4 mph 82 % 0 in
00:57 58.5 °F 53.6 °F 29.9 in NE 4 mph 5.4 mph 82 % 0 in
01:02 58.5 °F 53.6 °F 29.9 in NNE 3.8 mph 4.9 mph 82 % 0 in
01:07 58.5 °F 53.6 °F 29.9 in NNE 4 mph 5.6 mph 82 % 0 in
01:12 58.5 °F 53.6 °F 29.9 in NE 1.6 mph 5.8 mph 83 % 0 in
01:17 58.5 °F 53.6 °F 29.9 in NE 3.4 mph 5.8 mph 83 % 0 in
01:22 58.5 °F 53.6 °F 29.9 in NE 4.7 mph 8.5 mph 84 % 0 in
01:28 58.6 °F 53.6 °F 29.9 in NE 4.9 mph 8.5 mph 84 % 0 in
01:33 58.6 °F 53.6 °F 29.9 in North 1.6 mph 6.9 mph 84 % 0 in
01:38 58.6 °F 53.6 °F 29.9 in NE 2.5 mph 6.9 mph 84 % 0 in
01:43 58.5 °F 55.4 °F 29.9 in Calm   5.4 mph 85 % 0 in
01:48 58.3 °F 55.4 °F 29.9 in Calm   4.7 mph 85 % 0 in
01:53 58.1 °F 53.6 °F 29.9 in NNE 4 mph 4.7 mph 84 % 0 in
01:58 58.1 °F 55.4 °F 29.9 in Calm   4.3 mph 85 % 0 in
02:03 58.1 °F 55.4 °F 29.9 in Calm   5.8 mph 85 % 0 in
02:08 57.7 °F 53.6 °F 29.9 in Calm   5.8 mph 85 % 0 in
02:13 57.7 °F 53.6 °F 29.9 in ENE 4.3 mph 5.4 mph 86 % 0 in
02:18 57.7 °F 55.4 °F 29.9 in Calm   5.4 mph 87 % 0 in
02:23 57.6 °F 55.4 °F 29.9 in Calm   4.5 mph 87 % 0 in
02:28 57.6 °F 55.4 °F 29.9 in Calm   3.8 mph 87 % 0 in
02:33 57.4 °F 53.6 °F 29.9 in Calm   3.1 mph 87 % 0 in
02:38 57 °F 53.6 °F 29.9 in Calm     87 % 0 in
02:42 56.8 °F 53.6 °F 29.9 in Calm     87 % 0 in
02:47 56.7 °F 53.6 °F 29.9 in Calm     87 % 0 in
02:52 56.5 °F 53.6 °F 29.9 in Calm     88 % 0 in
02:58 56.3 °F 53.6 °F 29.9 in Calm   2.2 mph 88 % 0 in
03:03 56.5 °F 53.6 °F 29.9 in Calm   2.2 mph 89 % 0 in
03:08 56.5 °F 53.6 °F 29.9 in Calm   3.8 mph 90 % 0 in
03:13 56.3 °F 53.6 °F 29.9 in Calm   3.8 mph 90 % 0 in
03:18 56.3 °F 53.6 °F 29.9 in Calm     90 % 0 in
03:23 56.1 °F 53.6 °F 29.9 in Calm     90 % 0 in
03:33 55.9 °F 53.6 °F 29.9 in North 2.5 mph 3.6 mph 91 % 0 in
03:38 55.9 °F 53.6 °F 29.9 in Calm   3.6 mph 91 % 0 in
03:43 55.8 °F 53.6 °F 29.9 in Calm   3.1 mph 92 % 0 in
03:53 55.8 °F 53.6 °F 29.9 in NE 3.6 mph 4.3 mph 92 % 0 in
03:58 55.8 °F 55.4 °F 29.9 in Calm   4.9 mph 93 % 0 in
04:03 55.6 °F 53.6 °F 29.9 in Calm   4.9 mph 93 % 0 in
04:08 55.4 °F 53.6 °F 29.9 in Calm   4.5 mph 93 % 0 in
04:13 55.2 °F 53.6 °F 29.9 in NE 2.2 mph 3.8 mph 94 % 0 in
04:18 55.2 °F 53.6 °F 29.9 in Calm   3.4 mph 94 % 0 in
04:23 55.2 °F 53.6 °F 29.9 in Calm   3.4 mph 94 % 0 in
04:28 55 °F 53.6 °F 29.9 in Calm   2.7 mph 94 % 0 in
04:34 54.9 °F 53.6 °F 29.9 in NNE 2.5 mph 2.9 mph 93 % 0 in
04:39 54.9 °F 53.6 °F 29.9 in Calm   2.9 mph 94 % 0 in
04:44 54.9 °F 53.6 °F 29.9 in Calm   2.7 mph 94 % 0 in
04:49 54.9 °F 53.6 °F 29.9 in Calm   1.6 mph 94 % 0 in
04:54 54.9 °F 53.6 °F 29.9 in Calm     94 % 0 in
04:59 54.7 °F 53.6 °F 29.8 in NNE 3.4 mph 3.4 mph 94 % 0 in
05:04 54.7 °F 53.6 °F 29.8 in North 2.7 mph 4 mph 94 % 0 in
05:09 54.7 °F 53.6 °F 29.8 in Calm   4.3 mph 95 % 0 in
05:16 54.9 °F 53.6 °F 29.8 in NNE 2 mph 4.7 mph 95 % 0 in
05:22 54.9 °F 53.6 °F 29.8 in NE 4.3 mph 4.7 mph 95 % 0 in
05:24 54.9 °F 55.4 °F 29.8 in NNE 1.3 mph 4.3 mph 96 % 0 in
05:27 54.9 °F 55.4 °F 29.8 in Calm   4.3 mph 96 % 0 in
05:28 54.9 °F 53.6 °F 29.8 in Calm   4.3 mph 95 % 0 in
05:30 54.9 °F 53.6 °F 29.8 in Calm   4.3 mph 95 % 0 in
05:31 54.9 °F 53.6 °F 29.8 in Calm   4.3 mph 95 % 0 in
05:36 54.9 °F 55.4 °F 29.8 in North 2 mph 3.4 mph 96 % 0 in
05:41 54.9 °F 55.4 °F 29.8 in North 2.2 mph 3.4 mph 96 % 0 in
05:46 54.9 °F 55.4 °F 29.8 in NE 2.5 mph 3.4 mph 96 % 0 in
05:52 54.9 °F 55.4 °F 29.8 in NNE 4.3 mph 4.3 mph 96 % 0 in
05:57 54.9 °F 55.4 °F 29.8 in North 3.1 mph 4.3 mph 96 % 0 in
06:02 54.9 °F 55.4 °F 29.8 in NNE 2.2 mph 4 mph 96 % 0 in
06:07 54.9 °F 55.4 °F 29.8 in Calm   3.8 mph 96 % 0 in
06:12 54.9 °F 55.4 °F 29.8 in Calm   2.9 mph 96 % 0 in
06:17 54.9 °F 55.4 °F 29.8 in Calm     96 % 0 in
06:22 55 °F 55.4 °F 29.8 in Calm     96 % 0 in
06:28 55.2 °F 55.4 °F 29.8 in Calm     96 % 0 in
06:33 55.4 °F 55.4 °F 29.8 in Calm     96 % 0 in
06:38 55.6 °F 55.4 °F 29.8 in NNW 3.4 mph 3.8 mph 96 % 0 in
06:43 55.8 °F 55.4 °F 29.8 in ENE 3.6 mph 4.9 mph 97 % 0 in
06:48 55.9 °F 55.4 °F 29.8 in NE 1.1 mph 4.9 mph 96 % 0 in
06:53 56.1 °F 55.4 °F 29.8 in Calm   5.6 mph 97 % 0 in
06:58 56.3 °F 55.4 °F 29.8 in NNE 2.5 mph 5.6 mph 97 % 0 in
07:03 56.3 °F 55.4 °F 29.8 in North 1.1 mph 4.7 mph 97 % 0 in
07:08 56.3 °F 55.4 °F 29.8 in Calm   3.4 mph 97 % 0 in
07:13 56.7 °F 55.4 °F 29.8 in Calm   2.9 mph 97 % 0 in
07:18 56.7 °F 55.4 °F 29.8 in Calm   4 mph 96 % 0 in
07:23 56.7 °F 55.4 °F 29.8 in North 2.9 mph 4 mph 97 % 0 in
07:28 56.8 °F 55.4 °F 29.8 in Calm   3.6 mph 97 % 0 in
07:33 57 °F 57.2 °F 29.8 in Calm   2.7 mph 96 % 0 in
07:38 57.2 °F 57.2 °F 29.8 in ENE 0.9 mph 1.6 mph 96 % 0 in
07:43 57.6 °F 57.2 °F 29.8 in Calm   1.6 mph 96 % 0 in
07:48 57.7 °F 57.2 °F 29.8 in Calm   1.1 mph 96 % 0 in
07:53 57.9 °F 57.2 °F 29.8 in Calm   1.6 mph 96 % 0 in
07:58 58.1 °F 57.2 °F 29.8 in NNE 1.3 mph 2 mph 96 % 0 in
08:03 58.1 °F 57.2 °F 29.8 in NNE 4.3 mph 4.5 mph 96 % 0 in
08:08 58.3 °F 57.2 °F 29.8 in Calm   5.4 mph 96 % 0 in
08:09 58.3 °F 57.2 °F 29.8 in Calm   5.4 mph 96 % 0 in
08:14 58.5 °F 57.2 °F 29.8 in Calm   5.4 mph 96 % 0 in
08:19 58.6 °F 57.2 °F 29.8 in Calm   3.6 mph 96 % 0 in
08:24 58.8 °F 59 °F 29.8 in Calm   3.6 mph 96 % 0 in
08:29 59 °F 57.2 °F 29.8 in Calm   3.6 mph 95 % 0 in
08:34 59.2 °F 57.2 °F 29.8 in Calm   0.9 mph 95 % 0 in
08:39 59.5 °F 59 °F 29.8 in Calm   0.9 mph 95 % 0 in
08:44 59.7 °F 59 °F 29.8 in Calm     95 % 0 in
08:49 59.7 °F 57.2 °F 29.8 in Calm   2.7 mph 94 % 0 in
08:54 59.9 °F 59 °F 29.8 in Calm   2.7 mph 94 % 0 in
08:59 60.1 °F 59 °F 29.8 in Calm     94 % 0 in
09:04 60.4 °F 59 °F 29.8 in Calm     94 % 0 in
09:09 60.4 °F 59 °F 29.8 in Calm   2.9 mph 94 % 0 in
09:14 60.6 °F 59 °F 29.8 in Calm   2.9 mph 94 % 0 in
09:19 61 °F 59 °F 29.8 in Calm   2.5 mph 93 % 0 in
09:24 61.2 °F 59 °F 29.8 in Calm     93 % 0 in
09:29 61.2 °F 59 °F 29.8 in Calm   1.6 mph 93 % 0 in
09:30 61.2 °F 59 °F 29.8 in Calm   1.6 mph 93 % 0 in
09:35 61.2 °F 59 °F 29.8 in NNE 2.5 mph 2.5 mph 92 % 0 in
09:40 61.3 °F 59 °F 29.8 in North 1.1 mph 2.5 mph 92 % 0 in
09:45 61.3 °F 59 °F 29.8 in Calm   2 mph 92 % 0 in
09:50 61.5 °F 59 °F 29.8 in Calm   1.1 mph 92 % 0 in
09:55 61.7 °F 59 °F 29.8 in Calm     92 % 0 in
10:00 61.7 °F 59 °F 29.8 in Calm     92 % 0 in
10:05 61.7 °F 59 °F 29.8 in Calm   2.7 mph 91 % 0 in
10:11 61.9 °F 59 °F 29.8 in Calm   2.7 mph 91 % 0 in
10:16 61.9 °F 59 °F 29.8 in Calm   2.7 mph 91 % 0 in
10:21 61.9 °F 59 °F 29.8 in Calm   2.7 mph 91 % 0 in
10:26 61.9 °F 59 °F 29.8 in Calm     90 % 0 in
10:31 61.9 °F 59 °F 29.8 in Calm     90 % 0 in
10:36 61.9 °F 59 °F 29.8 in Calm     91 % 0 in
10:41 61.9 °F 59 °F 29.8 in Calm     91 % 0 in
10:46 61.9 °F 59 °F 29.8 in Calm     91 % 0 in
10:51 61.9 °F 59 °F 29.8 in Calm     91 % 0 in
10:56 61.7 °F 59 °F 29.8 in Calm   4.3 mph 91 % 0 in
11:01 61.7 °F 59 °F 29.8 in Calm   4.3 mph 91 % 0 in
11:06 61.7 °F 59 °F 29.8 in Calm   2 mph 91 % 0 in
11:11 61.7 °F 59 °F 29.8 in Calm   2 mph 91 % 0 in
11:16 61.5 °F 59 °F 29.8 in Calm     91 % 0 in
11:21 61.5 °F 59 °F 29.8 in Calm   1.3 mph 92 % 0 in
11:26 61.3 °F 59 °F 29.8 in Calm   1.3 mph 92 % 0 in
11:31 61.3 °F 59 °F 29.8 in Calm     92 % 0 in
11:36 61.3 °F 59 °F 29.8 in Calm     92 % 0 in
11:41 61.3 °F 59 °F 29.8 in Calm     92 % 0 in
11:46 61.3 °F 59 °F 29.8 in Calm     92 % 0 in
11:51 61.3 °F 59 °F 29.8 in Calm     92 % 0 in
11:56 61.3 °F 59 °F 29.8 in Calm     92 % 0 in
12:01 61.3 °F 59 °F 29.8 in Calm     92 % 0 in
12:06 61.5 °F 59 °F 29.8 in Calm     93 % 0 in
12:11 61.5 °F 59 °F 29.8 in Calm     93 % 0 in
12:16 61.7 °F 60.8 °F 29.8 in WSW 3.8 mph 3.8 mph 93 % 0.01 in
12:21 61.7 °F 60.8 °F 29.8 in West 3.1 mph 3.8 mph 94 % 0.01 in
12:26 61.9 °F 60.8 °F 29.8 in WSW 4.3 mph 6 mph 94 % 0.01 in
12:31 62.1 °F 60.8 °F 29.8 in West 3.1 mph 8.7 mph 94 % 0.02 in
12:36 62.4 °F 60.8 °F 29.8 in WSW 4.7 mph 8.7 mph 95 % 0.02 in
12:41 62.6 °F 60.8 °F 29.8 in WSW 2.9 mph 7.4 mph 94 % 0.02 in
12:46 63 °F 60.8 °F 29.8 in West 5.8 mph 7.6 mph 94 % 0.02 in
12:52 62.8 °F 60.8 °F 29.8 in SW 4.7 mph 9.6 mph 94 % 0.03 in
12:57 63.3 °F 60.8 °F 29.8 in West 6.5 mph 9.6 mph 94 % 0.03 in
13:02 63.9 °F 62.6 °F 29.8 in West 5.6 mph 8.7 mph 94 % 0.03 in
13:07 65.7 °F 64.4 °F 29.8 in WSW 9.6 mph 10.3 mph 94 % 0.03 in
13:12 65.8 °F 64.4 °F 29.8 in WSW 11 mph 11 mph 93 % 0.02 in
13:17 66.2 °F 64.4 °F 29.8 in WNW 5.4 mph 12.1 mph 91 % 0.02 in
13:22 66.4 °F 62.6 °F 29.8 in WSW 6.7 mph 12.1 mph 89 % 0.02 in
13:27 66.4 °F 62.6 °F 29.8 in WNW 7.4 mph 10.1 mph 89 % 0.01 in
13:32 67.1 °F 64.4 °F 29.8 in West 5.4 mph 8.7 mph 88 % 0.01 in
13:37 69.4 °F 66.2 °F 29.8 in West 5.8 mph 10.5 mph 87 % 0.01 in
13:42 70.2 °F 64.4 °F 29.8 in NNW 4.3 mph 10.5 mph 83 % 0.01 in
13:47 69.1 °F 62.6 °F 29.8 in West 4.9 mph 8.9 mph 79 % 0.01 in
13:52 68.4 °F 60.8 °F 29.8 in West 6.9 mph 8.9 mph 78 % 0 in
13:57 68.7 °F 60.8 °F 29.8 in West 3.8 mph 8.7 mph 78 % 0 in
14:02 70.2 °F 62.6 °F 29.8 in NW 3.6 mph 8.9 mph 76 % 0 in
14:07 71.6 °F 64.4 °F 29.8 in West 6.5 mph 8.9 mph 75 % 0 in
14:12 71.4 °F 62.6 °F 29.8 in WNW 4 mph 8.7 mph 71 % 0 in
14:17 71.2 °F 60.8 °F 29.8 in Calm   8.5 mph 70 % 0 in
14:22 71.4 °F 60.8 °F 29.8 in Calm   8.1 mph 70 % 0 in
14:27 71.4 °F 60.8 °F 29.8 in NNW 5.6 mph 5.6 mph 67 % 0 in
14:32 71.8 °F 60.8 °F 29.8 in Calm   7.6 mph 67 % 0 in
14:37 71.6 °F 60.8 °F 29.8 in Calm   7.6 mph 67 % 0 in
14:42 74.1 °F 62.6 °F 29.8 in West 3.4 mph 5.8 mph 66 % 0 in
14:47 75.2 °F 62.6 °F 29.8 in West 4 mph 5.4 mph 63 % 0 in
14:52 75.4 °F 59 °F 29.8 in Calm   7.6 mph 58 % 0 in
14:57 74.5 °F 59 °F 29.8 in Calm   7.6 mph 58 % 0 in
15:02 73.2 °F 57.2 °F 29.8 in NNW 3.6 mph 6.3 mph 57 % 0 in
15:07 72.7 °F 57.2 °F 29.8 in WNW 3.6 mph 3.6 mph 58 % 0 in
15:12 72 °F 57.2 °F 29.8 in Calm   3.6 mph 59 % 0 in
15:17 71.8 °F 57.2 °F 29.8 in West 5.4 mph 6.3 mph 60 % 0 in
15:22 72 °F 57.2 °F 29.8 in West 4.3 mph 7.8 mph 60 % 0 in
15:27 72.1 °F 57.2 °F 29.8 in WNW 6.9 mph 7.8 mph 61 % 0 in
15:32 72 °F 57.2 °F 29.8 in NNW 3.4 mph 7.2 mph 59 % 0 in
15:37 72.3 °F 57.2 °F 29.8 in NNW 3.6 mph 7.2 mph 60 % 0 in
15:42 72 °F 57.2 °F 29.8 in WNW 5.4 mph 6.5 mph 59 % 0 in
15:47 71.8 °F 57.2 °F 29.8 in West 0.9 mph 8.7 mph 62 % 0 in
15:52 71.6 °F 57.2 °F 29.8 in West 3.1 mph 8.7 mph 62 % 0 in
15:57 71.1 °F 57.2 °F 29.8 in Calm   8.5 mph 60 % 0 in
16:02 71.1 °F 57.2 °F 29.8 in Calm   8.5 mph 61 % 0 in
16:07 70.7 °F 57.2 °F 29.8 in NNW 2 mph 6.5 mph 62 % 0 in
16:13 70.5 °F 55.4 °F 29.8 in Calm   6.5 mph 60 % 0 in
16:18 70 °F 55.4 °F 29.8 in West 5.4 mph 5.8 mph 62 % 0 in
16:23 69.6 °F 55.4 °F 29.8 in NW 2 mph 5.8 mph 62 % 0 in
16:28 69.4 °F 55.4 °F 29.8 in WNW 2 mph 5.8 mph 63 % 0 in
16:33 69.3 °F 55.4 °F 29.8 in West 3.6 mph 3.6 mph 63 % 0 in
16:38 69.3 °F 57.2 °F 29.8 in West 2.7 mph 4.5 mph 64 % 0 in
16:43 69.1 °F 55.4 °F 29.8 in NW 3.8 mph 5.8 mph 63 % 0 in
16:48 69.1 °F 55.4 °F 29.8 in WSW 2.5 mph 6 mph 63 % 0 in
16:53 69.3 °F 57.2 °F 29.8 in West 3.4 mph 6 mph 64 % 0 in
16:58 69.4 °F 57.2 °F 29.8 in West 2.5 mph 5.6 mph 64 % 0 in
17:03 69.6 °F 57.2 °F 29.8 in West 2 mph 4 mph 63 % 0 in
17:08 69.6 °F 57.2 °F 29.8 in WNW 3.8 mph 4.9 mph 63 % 0 in
17:13 69.4 °F 55.4 °F 29.8 in West 5.8 mph 5.8 mph 62 % 0 in
17:18 69.3 °F 55.4 °F 29.8 in West 1.3 mph 5.8 mph 62 % 0 in
17:23 69.3 °F 55.4 °F 29.8 in Calm   5.6 mph 63 % 0 in
17:28 69.1 °F 57.2 °F 29.8 in West 3.6 mph 5.6 mph 64 % 0 in
17:29 69.1 °F 57.2 °F 29.8 in West 3.6 mph 5.6 mph 64 % 0 in
17:34 68.9 °F 57.2 °F 29.8 in NE 3.8 mph 6.9 mph 65 % 0 in
17:39 68.7 °F 57.2 °F 29.8 in Calm   6.9 mph 65 % 0 in
17:44 68.5 °F 57.2 °F 29.8 in WSW 4.7 mph 5.4 mph 66 % 0 in
17:49 68.4 °F 57.2 °F 29.8 in NW 2.7 mph 5.6 mph 66 % 0 in
17:54 68.4 °F 57.2 °F 29.8 in West 3.1 mph 5.6 mph 67 % 0 in
17:59 68.4 °F 57.2 °F 29.8 in West 3.1 mph 5.8 mph 67 % 0 in
18:04 68.2 °F 57.2 °F 29.8 in Calm   5.8 mph 68 % 0 in
18:09 68.2 °F 57.2 °F 29.8 in West 5.4 mph 5.6 mph 69 % 0 in
18:14 68.2 °F 57.2 °F 29.8 in Calm   5.6 mph 70 % 0 in
18:19 68 °F 59 °F 29.8 in Calm   5.4 mph 71 % 0 in
18:24 67.6 °F 59 °F 29.8 in NW 3.6 mph 4 mph 72 % 0 in
18:29 67.3 °F 59 °F 29.8 in Calm   4.3 mph 73 % 0 in
18:34 67.1 °F 59 °F 29.8 in Calm   4.3 mph 73 % 0 in
18:39 66.2 °F 59 °F 29.8 in SW 5.6 mph 9.6 mph 78 % 0 in
18:44 64.8 °F 59 °F 29.8 in South 2.9 mph 9.6 mph 79 % 0.01 in
18:49 63.7 °F 59 °F 29.8 in SSW 12.3 mph 14.3 mph 82 % 0.02 in
18:54 62.6 °F 57.2 °F 29.8 in West 6 mph 14.3 mph 82 % 0.02 in
18:59 62.1 °F 57.2 °F 29.8 in SSW 4.3 mph 13.2 mph 84 % 0.06 in
19:04 61.7 °F 57.2 °F 29.8 in West 2.9 mph 10.1 mph 85 % 0.06 in
19:09 61.5 °F 57.2 °F 29.8 in West 2.7 mph 7.4 mph 87 % 0.06 in
19:14 61.3 °F 59 °F 29.8 in West 2.5 mph 6.3 mph 89 % 0.06 in
19:19 61.2 °F 59 °F 29.8 in West 1.6 mph 5.8 mph 89 % 0.06 in
19:24 60.8 °F 57.2 °F 29.8 in Calm   5.8 mph 89 % 0.06 in
19:30 60.6 °F 57.2 °F 29.8 in Calm   4.9 mph 90 % 0.06 in
19:35 60.6 °F 57.2 °F 29.8 in Calm   1.6 mph 90 % 0.06 in
19:40 60.4 °F 57.2 °F 29.8 in Calm     90 % 0.06 in
19:45 60.3 °F 57.2 °F 29.8 in Calm     91 % 0.05 in
19:50 60.1 °F 57.2 °F 29.8 in Calm     91 % 0.04 in
19:55 60.1 °F 57.2 °F 29.8 in Calm     91 % 0.04 in
20:00 59.9 °F 57.2 °F 29.8 in Calm   3.8 mph 91 % 0 in
20:05 59.9 °F 57.2 °F 29.8 in Calm   3.8 mph 92 % 0 in
20:10 59.9 °F 57.2 °F 29.8 in Calm     92 % 0 in
20:15 59.7 °F 57.2 °F 29.8 in Calm   1.3 mph 92 % 0.01 in
20:20 59.7 °F 57.2 °F 29.8 in Calm   1.3 mph 93 % 0.01 in
20:25 59.9 °F 59 °F 29.8 in Calm     93 % 0.01 in
20:30 59.7 °F 57.2 °F 29.8 in Calm     93 % 0.01 in
20:35 59.7 °F 57.2 °F 29.8 in Calm     93 % 0.01 in
20:40 59.7 °F 57.2 °F 29.8 in Calm     94 % 0.01 in
20:45 59.9 °F 59 °F 29.8 in Calm     94 % 0.01 in
20:50 59.9 °F 59 °F 29.8 in Calm     94 % 0.01 in
20:56 59.7 °F 57.2 °F 29.8 in Calm     94 % 0.01 in
21:01 59.9 °F 59 °F 29.8 in Calm     94 % 0.01 in
21:06 59.9 °F 59 °F 29.8 in Calm     94 % 0.01 in
21:11 60.1 °F 59 °F 29.8 in Calm   1.1 mph 94 % 0.01 in
21:16 59.9 °F 59 °F 29.8 in Calm   1.1 mph 94 % 0 in
21:21 59.9 °F 59 °F 29.8 in Calm   1.1 mph 94 % 0 in
21:26 60.1 °F 59 °F 29.9 in Calm   1.1 mph 95 % 0 in
21:31 60.1 °F 59 °F 29.9 in Calm   0.9 mph 95 % 0 in
21:36 60.1 °F 59 °F 29.9 in Calm   0.9 mph 95 % 0 in
21:41 60.1 °F 59 °F 29.9 in Calm   2.2 mph 95 % 0 in
21:46 59.9 °F 59 °F 29.9 in Calm   2.5 mph 95 % 0 in
21:51 59.7 °F 59 °F 29.9 in SW 0.9 mph 3.8 mph 95 % 0.01 in
21:53 59.7 °F 59 °F 29.9 in Calm   3.8 mph 95 % 0.01 in
21:58 59.7 °F 59 °F 29.9 in SSW 1.3 mph 3.4 mph 95 % 0.01 in
22:03 59.7 °F 59 °F 29.9 in Calm   3.8 mph 95 % 0.01 in
22:08 59.5 °F 59 °F 29.9 in Calm   3.8 mph 96 % 0.01 in
22:13 59.5 °F 59 °F 29.9 in Calm   2.5 mph 96 % 0.01 in
22:18 59.5 °F 59 °F 29.9 in Calm     96 % 0.01 in
22:23 59.5 °F 59 °F 29.9 in Calm   1.3 mph 96 % 0.01 in
22:28 59.5 °F 59 °F 29.9 in Calm   2.9 mph 96 % 0.01 in
22:33 59.4 °F 59 °F 29.9 in Calm   2.9 mph 96 % 0.01 in
22:38 59.4 °F 59 °F 29.9 in Calm   3.1 mph 96 % 0.01 in
22:44 59.4 °F 59 °F 29.9 in Calm   4 mph 96 % 0.01 in
22:49 59.4 °F 59 °F 29.9 in Calm   4 mph 96 % 0 in
22:54 59.4 °F 59 °F 29.9 in Calm   3.1 mph 96 % 0 in
22:59 59.4 °F 59 °F 29.9 in Calm     96 % 0 in
23:04 59.4 °F 59 °F 29.9 in SSW 0.9 mph 0.9 mph 97 % 0 in
23:09 59.4 °F 59 °F 29.9 in Calm   3.4 mph 97 % 0 in
23:14 59.2 °F 59 °F 29.9 in Calm   3.4 mph 97 % 0 in
23:19 59.2 °F 59 °F 29.9 in Calm   2.9 mph 97 % 0 in
23:24 59.4 °F 59 °F 29.9 in SW 3.1 mph 4 mph 97 % 0 in
23:29 59.4 °F 59 °F 29.9 in WSW 4 mph 5.8 mph 97 % 0 in
23:34 59.4 °F 59 °F 29.9 in SW 1.1 mph 6.5 mph 97 % 0 in
23:39 59.4 °F 59 °F 29.9 in SSW 6.5 mph 7.6 mph 97 % 0 in
23:44 59.4 °F 59 °F 29.9 in SSW 5.6 mph 7.6 mph 97 % 0 in
23:49 59.4 °F 59 °F 29.9 in SSW 4 mph 7.4 mph 97 % 0 in
23:54 59.4 °F 59 °F 29.9 in West 4.9 mph 6.3 mph 97 % 0 in
23:55 59.4 °F 59 °F 29.9 in SSW 3.6 mph 6.3 mph 97 % 0 in
Le Gheer Warneton
Courtoisie de Weather Underground - 2.25 mb

Mise a jour : 17-12-17 03:24:12
Généré par Cumulus 1.9.4 (1099)